GFSMW_prec_precacc_093.txt.gz
Total_Precipitation_Accumulation
1.00 1.21 0.85 0.73 0.82 0.72 0.74 0.52 0.42 0.36 0.40 0.58 0.55 0.73 0.90 1.21 1.35 1.05 0.87 0.71 0.63 0.54 0.44 0.30 0.18 0.09 0.02 0.01 0.04 0.07 0.13 0.15 0.20 0.18 0.03 0.01 0.00 0.00 0.00 0.00 0.00 0.00 0.00
0.87 1.25 1.65 0.84 0.76 1.35 1.55 1.15 0.82 0.77 0.53 0.65 0.64 0.56 0.79 1.00 1.19 1.35 1.07 1.03 0.83 0.67 0.55 0.47 0.43 0.31 0.21 0.13 0.18 0.20 0.21 0.16 0.23 0.24 0.10 0.02 0.00 0.00 0.00 0.00 0.00 0.00 0.00
0.49 0.94 1.74 1.30 1.14 1.54 1.57 1.30 1.21 1.06 1.14 1.05 1.35 1.16 1.15 1.06 1.38 1.51 1.28 1.29 1.20 1.05 1.04 1.02 0.78 0.56 0.69 0.82 0.84 0.76 0.70 0.57 0.42 0.31 0.25 0.08 0.01 0.01 0.01 0.01 0.00 0.00 0.00
0.29 0.46 0.77 1.17 1.32 0.81 0.72 1.18 2.23 2.50 1.57 1.57 2.34 2.73 2.63 2.49 2.23 2.55 2.18 1.65 1.48 1.46 1.65 1.90 1.99 1.81 1.47 1.17 1.15 1.15 1.01 1.00 0.93 0.86 0.56 0.42 0.28 0.18 0.09 0.03 0.02 0.01 0.01
0.23 0.27 0.44 0.65 0.53 0.42 0.43 0.57 1.10 1.89 1.95 1.88 2.33 2.73 2.31 1.84 1.65 1.74 2.13 1.92 1.96 1.75 1.65 1.67 1.67 1.55 1.40 1.51 1.46 1.32 1.33 1.27 1.03 0.89 0.75 0.62 0.53 0.51 0.42 0.23 0.12 0.09 0.06
0.14 0.30 0.23 0.30 0.34 0.39 0.48 0.44 0.60 0.96 1.77 1.91 1.88 2.21 2.46 2.56 2.14 1.76 1.89 1.63 1.39 1.37 1.32 1.19 1.08 1.09 1.07 1.04 1.18 1.32 1.23 1.11 1.07 1.00 0.89 0.75 0.66 0.59 0.63 0.56 0.37 0.28 0.20
0.29 0.34 0.51 0.48 0.53 0.53 0.33 0.36 0.46 0.58 0.89 1.23 1.32 1.43 1.22 1.47 1.59 1.48 1.43 1.36 1.11 0.89 0.98 0.89 0.86 0.86 0.89 0.89 0.91 0.89 0.88 0.92 0.86 0.78 0.77 0.82 0.84 0.83 0.84 0.76 0.57 0.34 0.21
0.52 0.44 0.66 0.69 0.66 0.39 0.24 0.18 0.19 0.19 0.21 0.33 0.54 0.78 0.93 1.21 1.18 1.10 1.00 0.88 0.77 0.75 0.86 0.92 0.86 0.78 0.78 0.80 0.79 0.80 0.78 0.76 0.78 0.81 0.74 0.68 0.63 0.65 0.62 0.59 0.57 0.48 0.31
0.75 0.56 0.47 0.61 0.51 0.26 0.18 0.12 0.09 0.10 0.05 0.06 0.14 0.19 0.22 0.34 0.50 0.63 0.64 0.77 0.91 0.82 0.82 0.86 0.79 0.67 0.56 0.49 0.51 0.50 0.46 0.43 0.41 0.39 0.35 0.31 0.33 0.40 0.37 0.37 0.49 0.77 0.82
0.75 0.59 0.44 0.43 0.27 0.09 0.03 0.00 0.00 0.02 0.03 0.06 0.10 0.03 0.05 0.09 0.14 0.16 0.16 0.20 0.33 0.42 0.44 0.51 0.51 0.50 0.55 0.52 0.50 0.45 0.45 0.40 0.38 0.41 0.48 0.47 0.41 0.39 0.36 0.39 0.46 0.46 0.66
0.46 0.30 0.24 0.15 0.04 0.00 0.00 0.00 0.01 0.04 0.06 0.05 0.03 0.02 0.04 0.06 0.07 0.07 0.05 0.05 0.07 0.07 0.08 0.10 0.13 0.13 0.15 0.23 0.31 0.31 0.39 0.48 0.53 0.59 0.66 0.71 0.71 0.79 0.80 0.84 0.92 1.01 1.05
0.15 0.09 0.04 0.02 0.00 0.00 0.00 0.00 0.05 0.07 0.03 0.02 0.02 0.02 0.03 0.04 0.05 0.05 0.07 0.07 0.07 0.05 0.05 0.06 0.06 0.06 0.10 0.13 0.14 0.15 0.17 0.22 0.28 0.36 0.45 0.48 0.51 0.59 0.64 0.67 0.69 0.87 1.12
0.00 0.02 0.00 0.00 0.01 0.02 0.07 0.12 0.10 0.03 0.04 0.04 0.03 0.03 0.04 0.05 0.06 0.06 0.06 0.06 0.06 0.06 0.05 0.04 0.05 0.06 0.05 0.06 0.08 0.11 0.14 0.20 0.29 0.35 0.39 0.42 0.43 0.47 0.47 0.50 0.61 0.70 0.73
0.00 0.00 0.01 0.00 0.06 0.15 0.25 0.15 0.12 0.10 0.10 0.09 0.07 0.08 0.07 0.08 0.07 0.07 0.06 0.05 0.05 0.05 0.04 0.05 0.05 0.07 0.08 0.10 0.11 0.11 0.11 0.10 0.10 0.13 0.15 0.22 0.31 0.42 0.61 0.84 0.94 0.87 0.67
0.00 0.00 0.01 0.01 0.05 0.19 0.18 0.17 0.20 0.19 0.16 0.15 0.12 0.07 0.06 0.08 0.07 0.06 0.07 0.05 0.05 0.04 0.04 0.08 0.14 0.16 0.17 0.20 0.19 0.19 0.20 0.21 0.25 0.26 0.31 0.37 0.48 0.54 0.51 0.43 0.35 0.34 0.32
0.00 0.00 0.00 0.00 0.02 0.08 0.15 0.15 0.19 0.17 0.10 0.10 0.09 0.07 0.05 0.06 0.08 0.09 0.09 0.09 0.09 0.10 0.10 0.13 0.14 0.17 0.21 0.37 0.31 0.25 0.26 0.29 0.31 0.34 0.37 0.41 0.50 0.40 0.38 0.28 0.21 0.16 0.19
0.00 0.00 0.00 0.00 0.02 0.11 0.19 0.61 0.74 0.37 0.09 0.21 0.16 0.12 0.08 0.09 0.12 0.14 0.16 0.14 0.12 0.15 0.24 0.25 0.20 0.16 0.15 0.29 0.24 0.22 0.20 0.23 0.25 0.25 0.23 0.20 0.19 0.17 0.13 0.17 0.17 0.20 0.13
0.00 0.00 0.00 0.00 0.02 0.13 0.53 0.65 0.86 0.35 0.16 0.29 0.47 0.52 0.47 0.39 0.39 0.41 0.40 0.32 0.30 0.29 0.25 0.27 0.37 0.45 0.54 0.51 0.36 0.28 0.20 0.19 0.17 0.15 0.13 0.09 0.04 0.03 0.03 0.05 0.10 0.07 0.07
0.01 0.01 0.00 0.00 0.01 0.08 0.30 0.32 0.47 0.53 0.56 0.85 0.84 0.80 0.66 0.62 0.87 1.01 0.86 0.75 0.73 0.68 0.77 0.64 0.55 0.66 0.74 0.61 0.47 0.30 0.22 0.18 0.13 0.07 0.02 0.01 0.00 0.02 0.03 0.04 0.02 0.00 0.00
0.00 0.00 0.01 0.02 0.03 0.06 0.22 0.56 0.97 0.79 0.72 0.81 0.97 0.89 0.78 0.64 0.75 0.70 0.76 0.71 0.63 0.68 0.66 0.70 0.57 0.52 0.48 0.35 0.27 0.20 0.12 0.06 0.01 0.00 0.00 0.02 0.01 0.02 0.05 0.03 0.01 0.00 0.00
0.03 0.04 0.05 0.14 0.19 0.29 0.61 0.84 0.99 0.90 0.89 0.92 0.79 0.66 0.55 0.71 0.67 0.69 0.53 0.61 0.53 0.41 0.37 0.33 0.30 0.21 0.12 0.04 0.02 0.01 0.01 0.00 0.01 0.01 0.00 0.00 0.02 0.04 0.04 0.03 0.00 0.00 0.01
0.19 0.07 0.22 0.66 0.79 0.59 0.55 0.45 0.50 0.47 0.26 0.37 0.34 0.37 0.26 0.32 0.42 0.27 0.25 0.23 0.19 0.13 0.07 0.03 0.01 0.00 0.00 0.01 0.01 0.02 0.03 0.03 0.02 0.02 0.02 0.01 0.04 0.04 0.02 0.03 0.01 0.02 0.01
0.07 0.01 0.07 0.12 0.09 0.04 0.01 0.03 0.05 0.05 0.00 0.00 0.00 0.00 0.00 0.00 0.01 0.00 0.00 0.00 0.00 0.00 0.00 0.00 0.00 0.00 0.00 0.01 0.05 0.04 0.05 0.07 0.06 0.02 0.04 0.05 0.04 0.05 0.03 0.04 0.05 0.03 0.02
0.00 0.00 0.00 0.00 0.00 0.00 0.00 0.00 0.00 0.00 0.00 0.00 0.00 0.00 0.00 0.00 0.00 0.00 0.00 0.00 0.00 0.01 0.02 0.02 0.03 0.03 0.04 0.05 0.05 0.08 0.08 0.09 0.07 0.06 0.06 0.08 0.07 0.08 0.08 0.09 0.09 0.06 0.03
0.04 0.07 0.09 0.09 0.05 0.01 0.01 0.01 0.01 0.02 0.03 0.02 0.02 0.01 0.01 0.01 0.01 0.01 0.02 0.01 0.01 0.03 0.02 0.01 0.02 0.04 0.05 0.07 0.16 0.17 0.15 0.16 0.22 0.28 0.16 0.15 0.10 0.09 0.10 0.09 0.10 0.13 0.09
0.00 0.01 0.06 0.12 0.19 0.19 0.17 0.12 0.08 0.07 0.05 0.05 0.03 0.04 0.02 0.02 0.03 0.04 0.04 0.07 0.05 0.06 0.06 0.05 0.04 0.03 0.05 0.08 0.14 0.16 0.17 0.21 0.29 0.32 0.19 0.12 0.09 0.08 0.08 0.11 0.16 0.18 0.15

GFSMW_prec_precacc_096.txt.gz
Total_Precipitation_Accumulation
1.00 1.21 0.85 0.73 0.83 0.72 0.74 0.52 0.42 0.36 0.40 0.58 0.55 0.73 0.90 1.21 1.35 1.05 0.87 0.73 0.65 0.55 0.46 0.35 0.24 0.15 0.06 0.05 0.10 0.12 0.15 0.15 0.20 0.18 0.03 0.01 0.00 0.00 0.00 0.00 0.00 0.00 0.00
0.88 1.25 1.65 0.85 0.78 1.38 1.56 1.16 0.83 0.77 0.53 0.65 0.64 0.56 0.79 1.00 1.19 1.35 1.07 1.08 1.01 0.86 0.63 0.54 0.49 0.36 0.26 0.15 0.19 0.22 0.23 0.16 0.23 0.24 0.10 0.02 0.00 0.00 0.00 0.00 0.00 0.00 0.00
0.55 0.99 1.78 1.32 1.15 1.56 1.60 1.32 1.22 1.06 1.14 1.05 1.36 1.16 1.16 1.06 1.38 1.52 1.30 1.30 1.23 1.18 1.33 1.31 0.98 0.67 0.74 0.85 0.85 0.77 0.71 0.57 0.42 0.31 0.25 0.08 0.01 0.01 0.01 0.01 0.00 0.00 0.00
0.34 0.52 0.83 1.20 1.35 0.83 0.72 1.18 2.23 2.50 1.57 1.57 2.34 2.73 2.63 2.50 2.23 2.56 2.22 1.70 1.50 1.52 1.75 2.05 2.27 2.10 1.64 1.22 1.18 1.17 1.01 1.01 0.94 0.86 0.56 0.42 0.28 0.18 0.09 0.03 0.02 0.02 0.01
0.28 0.31 0.47 0.67 0.54 0.43 0.43 0.57 1.10 1.89 1.95 1.88 2.34 2.74 2.32 1.85 1.65 1.75 2.26 2.22 2.13 1.86 1.78 1.84 1.87 1.80 1.64 1.74 1.61 1.39 1.37 1.31 1.08 0.93 0.76 0.63 0.55 0.52 0.42 0.23 0.13 0.09 0.06
0.15 0.30 0.25 0.31 0.35 0.40 0.49 0.44 0.61 0.98 1.80 1.94 1.93 2.24 2.49 2.66 2.27 1.86 2.05 2.02 1.66 1.61 1.54 1.39 1.26 1.29 1.28 1.29 1.47 1.55 1.37 1.24 1.20 1.14 1.01 0.83 0.74 0.64 0.67 0.58 0.37 0.28 0.20
0.29 0.35 0.55 0.50 0.54 0.54 0.36 0.39 0.51 0.59 0.93 1.29 1.46 1.50 1.28 1.67 1.82 1.69 1.71 1.89 1.87 1.46 1.30 1.18 1.11 1.05 1.05 1.04 1.06 1.05 1.03 1.05 0.97 0.88 0.88 0.93 0.92 0.88 0.88 0.80 0.59 0.35 0.21
0.53 0.47 0.73 0.83 0.83 0.56 0.50 0.32 0.36 0.26 0.25 0.33 0.55 0.79 0.96 1.25 1.26 1.21 1.24 1.28 1.25 1.36 1.34 1.24 1.12 0.97 0.94 0.95 0.94 0.93 0.94 0.94 0.95 0.95 0.85 0.79 0.72 0.72 0.69 0.66 0.63 0.54 0.33
0.82 0.65 0.61 0.81 0.71 0.46 0.39 0.30 0.19 0.18 0.07 0.06 0.14 0.20 0.28 0.37 0.52 0.68 0.74 0.91 1.15 1.08 1.12 1.12 1.02 0.84 0.72 0.63 0.64 0.62 0.56 0.58 0.62 0.53 0.46 0.41 0.39 0.45 0.43 0.43 0.55 0.87 0.94
0.87 0.75 0.62 0.58 0.42 0.20 0.09 0.05 0.03 0.03 0.03 0.06 0.10 0.03 0.06 0.09 0.14 0.17 0.18 0.23 0.39 0.50 0.55 0.62 0.65 0.66 0.71 0.78 0.73 0.62 0.58 0.54 0.51 0.52 0.58 0.57 0.51 0.49 0.48 0.51 0.58 0.60 0.82
0.61 0.48 0.41 0.25 0.08 0.01 0.00 0.00 0.01 0.04 0.06 0.05 0.03 0.02 0.04 0.06 0.07 0.07 0.05 0.05 0.07 0.08 0.09 0.11 0.14 0.16 0.19 0.31 0.45 0.55 0.63 0.69 0.72 0.80 0.90 0.95 0.95 1.02 1.01 1.03 1.14 1.26 1.26
0.27 0.21 0.11 0.03 0.00 0.00 0.00 0.00 0.05 0.07 0.03 0.02 0.02 0.02 0.03 0.04 0.05 0.05 0.07 0.07 0.07 0.05 0.05 0.06 0.06 0.06 0.10 0.13 0.14 0.16 0.18 0.24 0.30 0.40 0.50 0.54 0.58 0.66 0.71 0.77 0.81 1.00 1.31
0.00 0.02 0.00 0.00 0.01 0.02 0.07 0.12 0.10 0.03 0.04 0.04 0.03 0.03 0.04 0.05 0.06 0.06 0.06 0.06 0.06 0.06 0.05 0.04 0.05 0.06 0.05 0.06 0.08 0.11 0.14 0.20 0.29 0.36 0.40 0.42 0.43 0.47 0.48 0.53 0.65 0.75 0.81
0.00 0.00 0.01 0.00 0.06 0.15 0.25 0.15 0.12 0.10 0.10 0.09 0.07 0.08 0.07 0.08 0.07 0.07 0.06 0.05 0.05 0.05 0.04 0.05 0.05 0.07 0.08 0.10 0.11 0.11 0.11 0.10 0.10 0.13 0.15 0.22 0.31 0.43 0.62 0.85 0.95 0.89 0.74
0.00 0.00 0.01 0.01 0.05 0.19 0.18 0.17 0.20 0.19 0.16 0.15 0.12 0.07 0.06 0.08 0.07 0.06 0.07 0.05 0.05 0.04 0.04 0.08 0.14 0.16 0.17 0.20 0.19 0.19 0.20 0.21 0.25 0.26 0.31 0.37 0.49 0.56 0.53 0.44 0.36 0.36 0.38
0.00 0.00 0.00 0.00 0.02 0.08 0.15 0.15 0.19 0.17 0.10 0.10 0.09 0.07 0.05 0.06 0.08 0.09 0.09 0.09 0.09 0.10 0.10 0.13 0.14 0.17 0.21 0.37 0.31 0.25 0.26 0.29 0.31 0.34 0.37 0.41 0.50 0.40 0.39 0.30 0.24 0.19 0.24
0.00 0.00 0.00 0.00 0.02 0.11 0.19 0.61 0.74 0.37 0.09 0.21 0.16 0.12 0.08 0.09 0.12 0.14 0.16 0.14 0.12 0.15 0.24 0.25 0.20 0.16 0.15 0.29 0.24 0.22 0.20 0.23 0.25 0.25 0.23 0.20 0.19 0.17 0.13 0.19 0.20 0.24 0.20
0.00 0.00 0.00 0.00 0.02 0.13 0.53 0.65 0.86 0.35 0.16 0.29 0.47 0.52 0.47 0.39 0.39 0.41 0.40 0.32 0.30 0.29 0.25 0.27 0.37 0.45 0.54 0.51 0.36 0.28 0.20 0.19 0.17 0.15 0.13 0.09 0.04 0.03 0.03 0.05 0.11 0.08 0.10
0.01 0.01 0.00 0.00 0.01 0.08 0.30 0.32 0.47 0.53 0.56 0.85 0.84 0.80 0.66 0.62 0.87 1.01 0.86 0.75 0.73 0.68 0.77 0.64 0.55 0.66 0.74 0.61 0.47 0.30 0.22 0.18 0.13 0.07 0.02 0.01 0.00 0.03 0.03 0.04 0.02 0.00 0.01
0.00 0.00 0.01 0.02 0.03 0.06 0.22 0.56 0.97 0.79 0.72 0.81 0.97 0.89 0.78 0.64 0.75 0.70 0.76 0.71 0.63 0.68 0.66 0.70 0.57 0.52 0.48 0.35 0.27 0.20 0.12 0.06 0.02 0.00 0.00 0.02 0.01 0.02 0.05 0.04 0.01 0.00 0.00
0.03 0.04 0.05 0.14 0.19 0.29 0.61 0.84 0.99 0.90 0.89 0.92 0.79 0.66 0.55 0.71 0.67 0.69 0.53 0.61 0.53 0.41 0.37 0.33 0.30 0.21 0.12 0.04 0.02 0.01 0.01 0.00 0.01 0.01 0.00 0.00 0.02 0.05 0.05 0.04 0.01 0.01 0.02
0.19 0.07 0.22 0.66 0.79 0.59 0.55 0.45 0.50 0.47 0.26 0.37 0.34 0.37 0.26 0.32 0.42 0.27 0.25 0.23 0.19 0.13 0.07 0.03 0.01 0.00 0.00 0.01 0.01 0.02 0.03 0.03 0.02 0.02 0.02 0.01 0.05 0.04 0.03 0.04 0.03 0.04 0.04
0.07 0.01 0.07 0.12 0.09 0.04 0.01 0.03 0.05 0.05 0.00 0.00 0.00 0.00 0.00 0.00 0.01 0.00 0.00 0.00 0.00 0.00 0.00 0.00 0.00 0.00 0.00 0.01 0.05 0.04 0.05 0.07 0.06 0.02 0.04 0.05 0.05 0.05 0.04 0.05 0.07 0.06 0.04
0.00 0.00 0.00 0.00 0.00 0.00 0.00 0.00 0.00 0.00 0.00 0.00 0.00 0.00 0.00 0.00 0.00 0.00 0.00 0.00 0.00 0.01 0.02 0.02 0.03 0.03 0.04 0.05 0.05 0.08 0.08 0.09 0.07 0.06 0.06 0.08 0.07 0.08 0.08 0.10 0.10 0.07 0.06
0.04 0.07 0.09 0.09 0.05 0.01 0.01 0.01 0.01 0.02 0.03 0.02 0.02 0.01 0.01 0.01 0.01 0.01 0.02 0.01 0.01 0.03 0.02 0.01 0.02 0.04 0.05 0.07 0.16 0.17 0.15 0.16 0.23 0.28 0.16 0.15 0.10 0.09 0.10 0.09 0.10 0.15 0.14
0.00 0.01 0.06 0.12 0.19 0.19 0.17 0.12 0.08 0.07 0.05 0.05 0.03 0.04 0.02 0.02 0.03 0.04 0.04 0.07 0.05 0.06 0.06 0.05 0.04 0.03 0.05 0.09 0.14 0.16 0.18 0.21 0.29 0.32 0.19 0.12 0.09 0.08 0.08 0.11 0.16 0.20 0.22

GFSMW_prec_precacc_099.txt.gz
Total_Precipitation_Accumulation
1.00 1.21 0.85 0.73 0.83 0.72 0.74 0.52 0.42 0.36 0.40 0.58 0.55 0.73 0.90 1.21 1.35 1.05 0.87 0.73 0.65 0.55 0.47 0.35 0.25 0.18 0.08 0.07 0.11 0.14 0.17 0.17 0.22 0.21 0.05 0.01 0.00 0.00 0.00 0.00 0.00 0.00 0.00
0.88 1.25 1.65 0.85 0.78 1.38 1.58 1.17 0.84 0.78 0.55 0.65 0.64 0.56 0.79 1.00 1.19 1.35 1.07 1.08 1.01 0.86 0.64 0.54 0.51 0.38 0.28 0.16 0.21 0.25 0.26 0.17 0.24 0.24 0.10 0.03 0.00 0.00 0.00 0.00 0.00 0.00 0.00
0.57 1.01 1.79 1.34 1.18 1.60 1.65 1.38 1.27 1.09 1.16 1.06 1.36 1.16 1.16 1.06 1.38 1.52 1.30 1.30 1.23 1.18 1.34 1.48 1.14 0.71 0.75 0.85 0.86 0.79 0.74 0.59 0.43 0.32 0.25 0.09 0.02 0.01 0.01 0.01 0.00 0.00 0.00
0.37 0.56 0.89 1.25 1.39 0.87 0.77 1.22 2.24 2.50 1.57 1.57 2.34 2.73 2.63 2.50 2.23 2.56 2.22 1.70 1.50 1.52 1.75 2.07 2.44 2.62 2.21 1.51 1.24 1.20 1.05 1.05 0.97 0.87 0.57 0.44 0.29 0.19 0.09 0.03 0.02 0.02 0.01
0.32 0.32 0.52 0.72 0.58 0.46 0.46 0.61 1.12 1.89 1.95 1.88 2.34 2.75 2.33 1.85 1.65 1.75 2.26 2.23 2.13 1.87 1.78 1.85 1.89 1.86 1.98 2.34 1.99 1.57 1.49 1.38 1.11 0.95 0.77 0.65 0.59 0.56 0.44 0.24 0.13 0.09 0.07
0.16 0.31 0.26 0.34 0.37 0.41 0.49 0.45 0.62 0.99 1.81 1.95 1.94 2.26 2.50 2.66 2.27 1.88 2.13 2.06 1.67 1.63 1.58 1.45 1.33 1.36 1.39 1.49 1.84 1.83 1.50 1.33 1.29 1.21 1.07 0.88 0.80 0.68 0.73 0.62 0.42 0.33 0.24
0.30 0.35 0.57 0.52 0.56 0.55 0.37 0.39 0.52 0.59 0.94 1.35 1.62 1.65 1.35 1.69 1.82 1.70 1.74 1.92 1.90 1.69 1.58 1.36 1.33 1.21 1.19 1.22 1.32 1.47 1.40 1.22 1.08 0.98 0.98 1.04 1.03 0.99 0.99 0.92 0.66 0.39 0.25
0.54 0.48 0.75 0.90 0.88 0.60 0.57 0.38 0.47 0.32 0.25 0.34 0.59 0.85 1.04 1.27 1.28 1.22 1.26 1.28 1.31 1.49 1.79 1.59 1.38 1.29 1.24 1.16 1.10 1.10 1.18 1.17 1.14 1.13 1.01 0.94 0.87 0.89 0.88 0.87 0.83 0.69 0.38
0.88 0.71 0.72 0.94 0.83 0.60 0.57 0.54 0.38 0.41 0.16 0.11 0.18 0.21 0.28 0.38 0.52 0.68 0.75 0.93 1.22 1.17 1.26 1.30 1.19 1.06 0.98 0.89 0.84 0.78 0.70 0.76 0.82 0.79 0.74 0.68 0.62 0.64 0.62 0.64 0.78 1.11 1.08
1.02 0.87 0.73 0.63 0.50 0.33 0.22 0.18 0.12 0.06 0.04 0.06 0.10 0.03 0.06 0.09 0.14 0.17 0.18 0.23 0.40 0.55 0.66 0.72 0.72 0.78 0.83 0.90 0.89 0.81 0.82 0.82 0.72 0.71 0.78 0.78 0.71 0.70 0.65 0.65 0.72 0.76 0.98
0.74 0.61 0.49 0.31 0.15 0.05 0.01 0.00 0.01 0.04 0.06 0.05 0.03 0.02 0.04 0.06 0.07 0.07 0.05 0.05 0.07 0.08 0.10 0.12 0.15 0.17 0.22 0.38 0.54 0.65 0.81 0.92 0.98 1.11 1.18 1.21 1.25 1.31 1.25 1.26 1.39 1.50 1.53
0.34 0.27 0.13 0.03 0.00 0.00 0.00 0.00 0.05 0.07 0.03 0.02 0.02 0.02 0.03 0.04 0.05 0.05 0.07 0.07 0.07 0.05 0.05 0.06 0.06 0.06 0.10 0.13 0.15 0.17 0.21 0.28 0.36 0.47 0.59 0.64 0.73 0.85 0.91 0.98 0.99 1.17 1.49
0.00 0.02 0.00 0.00 0.01 0.02 0.07 0.12 0.10 0.03 0.04 0.04 0.03 0.03 0.04 0.05 0.06 0.06 0.06 0.06 0.06 0.06 0.05 0.04 0.05 0.06 0.05 0.06 0.08 0.11 0.14 0.20 0.29 0.36 0.41 0.44 0.46 0.50 0.51 0.56 0.68 0.78 0.88
0.00 0.00 0.01 0.00 0.06 0.15 0.25 0.15 0.12 0.10 0.10 0.09 0.07 0.08 0.07 0.08 0.07 0.07 0.06 0.05 0.05 0.05 0.04 0.05 0.05 0.07 0.08 0.10 0.11 0.11 0.11 0.10 0.10 0.13 0.15 0.22 0.31 0.43 0.62 0.85 0.96 0.91 0.78
0.00 0.00 0.01 0.01 0.05 0.19 0.18 0.17 0.20 0.19 0.16 0.15 0.12 0.07 0.06 0.08 0.07 0.06 0.07 0.05 0.05 0.04 0.04 0.08 0.14 0.16 0.17 0.20 0.19 0.19 0.20 0.21 0.25 0.26 0.31 0.37 0.49 0.57 0.53 0.45 0.36 0.36 0.40
0.00 0.00 0.00 0.00 0.02 0.08 0.15 0.15 0.19 0.17 0.10 0.10 0.09 0.07 0.05 0.06 0.08 0.09 0.09 0.09 0.09 0.10 0.10 0.13 0.14 0.17 0.21 0.37 0.31 0.25 0.26 0.29 0.31 0.34 0.37 0.41 0.50 0.40 0.39 0.30 0.26 0.21 0.26
0.00 0.00 0.00 0.00 0.02 0.11 0.19 0.61 0.74 0.37 0.09 0.21 0.16 0.12 0.08 0.09 0.12 0.14 0.16 0.14 0.12 0.15 0.24 0.25 0.20 0.16 0.15 0.29 0.24 0.22 0.20 0.23 0.25 0.25 0.23 0.20 0.19 0.17 0.13 0.19 0.21 0.25 0.23
0.00 0.00 0.00 0.00 0.02 0.13 0.53 0.65 0.86 0.35 0.16 0.29 0.47 0.52 0.47 0.39 0.39 0.41 0.40 0.32 0.30 0.29 0.25 0.27 0.37 0.45 0.54 0.51 0.36 0.28 0.20 0.19 0.17 0.15 0.13 0.09 0.04 0.03 0.03 0.05 0.11 0.08 0.11
0.01 0.01 0.00 0.00 0.01 0.08 0.30 0.32 0.47 0.53 0.56 0.85 0.84 0.80 0.66 0.62 0.87 1.01 0.86 0.75 0.73 0.68 0.77 0.64 0.55 0.66 0.74 0.61 0.47 0.30 0.22 0.18 0.13 0.07 0.02 0.01 0.00 0.03 0.03 0.04 0.02 0.00 0.01
0.00 0.00 0.01 0.02 0.03 0.06 0.22 0.56 0.97 0.79 0.72 0.81 0.97 0.89 0.78 0.64 0.75 0.70 0.76 0.71 0.63 0.68 0.66 0.70 0.57 0.52 0.48 0.35 0.27 0.20 0.12 0.06 0.02 0.00 0.00 0.02 0.01 0.03 0.05 0.04 0.01 0.00 0.00
0.03 0.04 0.05 0.14 0.19 0.29 0.61 0.84 0.99 0.90 0.89 0.92 0.79 0.66 0.55 0.71 0.67 0.69 0.53 0.61 0.53 0.41 0.37 0.33 0.30 0.21 0.12 0.04 0.02 0.01 0.01 0.00 0.01 0.01 0.00 0.00 0.02 0.05 0.05 0.04 0.01 0.02 0.03
0.19 0.07 0.22 0.66 0.79 0.59 0.55 0.45 0.50 0.47 0.26 0.37 0.34 0.37 0.26 0.32 0.42 0.27 0.25 0.23 0.19 0.13 0.07 0.03 0.01 0.00 0.00 0.01 0.01 0.02 0.03 0.03 0.02 0.02 0.02 0.01 0.05 0.04 0.03 0.04 0.04 0.05 0.06
0.07 0.01 0.07 0.12 0.09 0.04 0.01 0.03 0.05 0.05 0.00 0.00 0.00 0.00 0.00 0.00 0.01 0.00 0.00 0.00 0.00 0.00 0.00 0.00 0.00 0.00 0.00 0.01 0.05 0.04 0.05 0.07 0.06 0.02 0.04 0.05 0.05 0.05 0.04 0.05 0.07 0.06 0.05
0.00 0.00 0.00 0.00 0.00 0.00 0.00 0.00 0.00 0.00 0.00 0.00 0.00 0.00 0.00 0.00 0.00 0.00 0.00 0.00 0.00 0.01 0.02 0.02 0.03 0.03 0.04 0.05 0.05 0.08 0.08 0.09 0.07 0.06 0.06 0.08 0.07 0.08 0.08 0.10 0.10 0.08 0.07
0.04 0.07 0.09 0.09 0.05 0.01 0.01 0.01 0.01 0.02 0.03 0.02 0.02 0.01 0.01 0.01 0.01 0.01 0.02 0.01 0.01 0.03 0.02 0.01 0.02 0.04 0.05 0.07 0.16 0.17 0.15 0.17 0.23 0.28 0.17 0.15 0.10 0.09 0.10 0.09 0.10 0.15 0.15
0.00 0.01 0.06 0.12 0.19 0.19 0.17 0.12 0.08 0.07 0.05 0.05 0.03 0.04 0.02 0.02 0.03 0.04 0.04 0.07 0.05 0.06 0.06 0.05 0.04 0.03 0.06 0.09 0.15 0.16 0.18 0.22 0.29 0.33 0.19 0.12 0.10 0.08 0.08 0.12 0.16 0.20 0.24

GFSMW_prec_precacc_105.txt.gz
Total_Precipitation_Accumulation
1.00 1.21 0.85 0.73 0.83 0.72 0.74 0.52 0.42 0.36 0.40 0.58 0.55 0.73 0.90 1.21 1.35 1.05 0.87 0.73 0.65 0.55 0.47 0.35 0.26 0.18 0.09 0.07 0.12 0.16 0.20 0.21 0.26 0.29 0.11 0.04 0.02 0.01 0.00 0.00 0.00 0.00 0.00
0.88 1.26 1.66 0.85 0.79 1.39 1.59 1.18 0.84 0.78 0.55 0.66 0.64 0.56 0.81 1.01 1.20 1.35 1.07 1.08 1.01 0.86 0.64 0.55 0.51 0.38 0.29 0.17 0.22 0.27 0.30 0.22 0.28 0.29 0.15 0.05 0.03 0.02 0.00 0.00 0.00 0.00 0.00
0.58 1.01 1.79 1.34 1.19 1.62 1.68 1.43 1.32 1.16 1.24 1.14 1.42 1.20 1.21 1.09 1.39 1.52 1.30 1.30 1.23 1.18 1.35 1.48 1.15 0.73 0.78 0.87 0.88 0.83 0.78 0.63 0.47 0.38 0.30 0.11 0.03 0.01 0.01 0.01 0.00 0.00 0.00
0.37 0.57 0.90 1.25 1.40 0.91 0.84 1.32 2.38 2.64 1.70 1.70 2.47 2.86 2.70 2.51 2.23 2.57 2.23 1.70 1.51 1.52 1.75 2.08 2.46 2.66 2.26 1.57 1.33 1.28 1.13 1.12 1.03 0.92 0.62 0.48 0.32 0.22 0.10 0.04 0.02 0.02 0.01
0.33 0.34 0.53 0.73 0.60 0.49 0.53 0.71 1.25 2.03 2.08 2.00 2.44 2.81 2.38 1.88 1.68 1.76 2.27 2.23 2.13 1.87 1.79 1.87 1.92 1.91 2.06 2.42 2.12 1.72 1.68 1.56 1.26 1.05 0.81 0.69 0.64 0.62 0.50 0.29 0.16 0.11 0.09
0.16 0.31 0.26 0.34 0.38 0.42 0.50 0.49 0.68 1.06 1.87 2.00 1.98 2.30 2.57 2.71 2.29 1.89 2.13 2.06 1.67 1.64 1.59 1.46 1.36 1.41 1.46 1.56 1.90 1.92 1.62 1.49 1.51 1.44 1.26 1.01 0.91 0.78 0.82 0.73 0.50 0.43 0.33
0.30 0.36 0.58 0.54 0.58 0.57 0.37 0.39 0.52 0.59 0.94 1.35 1.68 1.81 1.52 1.81 1.89 1.74 1.76 1.95 1.93 1.72 1.64 1.53 1.52 1.38 1.39 1.41 1.50 1.66 1.55 1.34 1.18 1.10 1.13 1.20 1.19 1.16 1.20 1.14 0.83 0.55 0.35
0.55 0.51 0.80 0.98 0.98 0.69 0.60 0.38 0.49 0.33 0.26 0.34 0.63 1.04 1.34 1.71 1.71 1.58 1.51 1.45 1.37 1.53 1.86 1.76 1.72 1.73 1.68 1.63 1.59 1.60 1.64 1.55 1.43 1.37 1.19 1.09 1.01 1.05 1.08 1.09 1.09 0.98 0.62
0.91 0.79 0.84 1.12 1.00 0.74 0.69 0.64 0.51 0.48 0.20 0.12 0.19 0.23 0.32 0.44 0.65 0.78 0.79 0.95 1.22 1.18 1.31 1.42 1.33 1.31 1.31 1.25 1.28 1.25 1.17 1.18 1.21 1.12 1.04 0.93 0.78 0.79 0.80 0.86 1.06 1.49 1.52
1.10 0.94 0.85 0.78 0.62 0.54 0.42 0.43 0.32 0.13 0.08 0.09 0.11 0.04 0.07 0.10 0.14 0.17 0.18 0.23 0.40 0.55 0.68 0.79 0.81 0.88 0.92 1.06 1.13 1.09 1.10 1.16 1.17 1.17 1.15 1.09 0.98 0.94 0.89 0.90 0.97 1.06 1.34
0.82 0.69 0.56 0.34 0.17 0.11 0.02 0.02 0.02 0.04 0.06 0.05 0.03 0.02 0.04 0.06 0.07 0.07 0.05 0.05 0.07 0.08 0.10 0.12 0.15 0.17 0.24 0.42 0.63 0.78 0.94 1.11 1.23 1.47 1.69 1.75 1.82 1.93 1.84 1.80 1.86 1.91 1.90
0.36 0.28 0.14 0.04 0.01 0.00 0.00 0.00 0.05 0.07 0.03 0.02 0.02 0.02 0.03 0.04 0.05 0.05 0.07 0.07 0.07 0.05 0.05 0.06 0.06 0.06 0.10 0.13 0.15 0.17 0.22 0.30 0.40 0.55 0.71 0.78 0.94 1.18 1.37 1.56 1.64 1.88 2.23
0.01 0.02 0.00 0.00 0.01 0.02 0.07 0.12 0.10 0.03 0.04 0.04 0.03 0.03 0.04 0.05 0.06 0.06 0.06 0.06 0.06 0.06 0.05 0.04 0.05 0.06 0.05 0.06 0.08 0.11 0.14 0.20 0.29 0.36 0.41 0.44 0.47 0.54 0.58 0.68 0.85 0.98 1.09
0.00 0.00 0.01 0.00 0.06 0.15 0.25 0.15 0.12 0.10 0.10 0.09 0.07 0.08 0.07 0.08 0.07 0.07 0.06 0.05 0.05 0.05 0.04 0.05 0.05 0.07 0.08 0.10 0.11 0.11 0.11 0.10 0.10 0.13 0.15 0.22 0.31 0.43 0.62 0.86 0.96 0.91 0.79
0.00 0.00 0.01 0.01 0.05 0.19 0.18 0.17 0.20 0.19 0.16 0.15 0.12 0.07 0.06 0.08 0.07 0.06 0.07 0.05 0.05 0.04 0.04 0.08 0.14 0.16 0.17 0.20 0.19 0.19 0.20 0.21 0.25 0.26 0.31 0.37 0.49 0.57 0.53 0.45 0.36 0.37 0.41
0.00 0.00 0.00 0.00 0.02 0.08 0.15 0.15 0.19 0.17 0.10 0.10 0.09 0.07 0.05 0.06 0.08 0.09 0.09 0.09 0.09 0.10 0.10 0.13 0.14 0.17 0.21 0.37 0.31 0.25 0.26 0.29 0.31 0.34 0.37 0.41 0.50 0.40 0.39 0.30 0.26 0.22 0.26
0.00 0.00 0.00 0.00 0.02 0.11 0.19 0.61 0.74 0.37 0.09 0.21 0.16 0.12 0.08 0.09 0.12 0.14 0.16 0.14 0.12 0.15 0.24 0.25 0.20 0.16 0.15 0.29 0.24 0.22 0.20 0.23 0.25 0.25 0.23 0.20 0.19 0.17 0.13 0.19 0.21 0.25 0.23
0.00 0.00 0.00 0.00 0.02 0.13 0.53 0.65 0.86 0.35 0.16 0.29 0.47 0.52 0.47 0.39 0.39 0.41 0.40 0.32 0.30 0.29 0.25 0.27 0.37 0.45 0.54 0.51 0.36 0.28 0.20 0.19 0.17 0.15 0.13 0.09 0.04 0.03 0.03 0.05 0.11 0.08 0.11
0.01 0.01 0.00 0.00 0.01 0.08 0.30 0.32 0.47 0.53 0.56 0.85 0.84 0.80 0.66 0.62 0.87 1.01 0.86 0.75 0.73 0.68 0.77 0.64 0.55 0.66 0.74 0.61 0.47 0.30 0.22 0.18 0.13 0.07 0.02 0.01 0.00 0.03 0.03 0.04 0.02 0.00 0.01
0.00 0.00 0.01 0.02 0.03 0.06 0.22 0.56 0.97 0.79 0.72 0.81 0.97 0.89 0.78 0.64 0.75 0.70 0.76 0.71 0.63 0.68 0.66 0.70 0.57 0.52 0.48 0.35 0.27 0.20 0.12 0.06 0.02 0.00 0.00 0.02 0.01 0.03 0.05 0.04 0.01 0.00 0.01
0.03 0.04 0.05 0.14 0.19 0.29 0.61 0.84 0.99 0.90 0.89 0.92 0.79 0.66 0.55 0.71 0.67 0.69 0.53 0.61 0.53 0.41 0.37 0.33 0.30 0.21 0.12 0.04 0.02 0.01 0.01 0.00 0.01 0.01 0.00 0.00 0.02 0.05 0.05 0.04 0.01 0.02 0.03
0.19 0.07 0.22 0.66 0.79 0.59 0.55 0.45 0.50 0.47 0.26 0.37 0.34 0.37 0.26 0.32 0.42 0.27 0.25 0.23 0.19 0.13 0.07 0.03 0.01 0.00 0.00 0.01 0.01 0.02 0.03 0.03 0.02 0.02 0.02 0.01 0.05 0.04 0.03 0.04 0.04 0.05 0.06
0.07 0.01 0.07 0.12 0.09 0.04 0.01 0.03 0.05 0.05 0.00 0.00 0.00 0.00 0.00 0.00 0.01 0.00 0.00 0.00 0.00 0.00 0.00 0.00 0.00 0.00 0.00 0.01 0.05 0.04 0.05 0.07 0.06 0.03 0.05 0.05 0.05 0.05 0.04 0.05 0.07 0.06 0.05
0.00 0.00 0.00 0.00 0.00 0.00 0.00 0.00 0.00 0.00 0.00 0.00 0.00 0.00 0.00 0.00 0.00 0.00 0.00 0.00 0.00 0.01 0.02 0.02 0.03 0.03 0.04 0.05 0.05 0.08 0.09 0.10 0.09 0.07 0.07 0.09 0.08 0.10 0.09 0.10 0.10 0.08 0.07
0.04 0.07 0.09 0.09 0.05 0.01 0.01 0.01 0.01 0.02 0.03 0.02 0.02 0.01 0.01 0.01 0.01 0.01 0.02 0.01 0.01 0.03 0.02 0.01 0.02 0.05 0.06 0.07 0.17 0.18 0.17 0.18 0.24 0.29 0.19 0.16 0.11 0.10 0.10 0.10 0.11 0.15 0.15
0.00 0.01 0.06 0.12 0.19 0.19 0.17 0.12 0.08 0.07 0.05 0.05 0.03 0.04 0.02 0.02 0.03 0.04 0.04 0.07 0.05 0.06 0.06 0.06 0.05 0.04 0.06 0.09 0.16 0.18 0.20 0.23 0.31 0.35 0.23 0.15 0.12 0.10 0.10 0.13 0.17 0.21 0.24

GFSMW_prec_precacc_108.txt.gz
Total_Precipitation_Accumulation
1.00 1.21 0.85 0.73 0.83 0.72 0.74 0.52 0.42 0.36 0.40 0.58 0.55 0.73 0.90 1.22 1.38 1.11 0.93 0.79 0.70 0.58 0.48 0.35 0.26 0.18 0.09 0.07 0.12 0.16 0.20 0.21 0.26 0.31 0.12 0.05 0.03 0.02 0.01 0.01 0.00 0.00 0.00
0.88 1.26 1.66 0.85 0.79 1.39 1.59 1.18 0.84 0.79 0.55 0.66 0.65 0.56 0.82 1.04 1.25 1.42 1.14 1.13 1.04 0.90 0.65 0.55 0.51 0.38 0.29 0.17 0.22 0.27 0.30 0.22 0.30 0.31 0.18 0.08 0.04 0.02 0.01 0.00 0.00 0.00 0.00
0.58 1.01 1.79 1.34 1.19 1.62 1.68 1.43 1.33 1.16 1.25 1.15 1.45 1.27 1.31 1.25 1.56 1.71 1.46 1.41 1.29 1.21 1.35 1.48 1.16 0.73 0.78 0.87 0.88 0.83 0.78 0.63 0.48 0.41 0.35 0.14 0.04 0.02 0.01 0.01 0.00 0.00 0.00
0.37 0.57 0.90 1.25 1.40 0.91 0.84 1.33 2.38 2.65 1.70 1.71 2.50 2.94 2.84 2.70 2.46 2.72 2.36 1.77 1.53 1.53 1.75 2.09 2.46 2.66 2.27 1.58 1.35 1.31 1.18 1.21 1.05 0.97 0.66 0.50 0.34 0.24 0.11 0.04 0.02 0.02 0.01
0.33 0.34 0.53 0.73 0.60 0.49 0.54 0.72 1.26 2.07 2.13 2.04 2.50 2.91 2.57 2.03 1.83 1.88 2.35 2.26 2.14 1.87 1.79 1.87 1.92 1.91 2.07 2.44 2.16 1.75 1.73 1.62 1.32 1.09 0.86 0.74 0.67 0.67 0.57 0.32 0.17 0.13 0.09
0.16 0.31 0.26 0.34 0.38 0.42 0.51 0.50 0.69 1.08 1.90 2.06 2.07 2.39 2.63 2.79 2.38 1.93 2.15 2.06 1.68 1.64 1.59 1.46 1.36 1.41 1.46 1.56 1.92 1.95 1.67 1.55 1.57 1.48 1.30 1.06 0.95 0.82 0.90 0.83 0.56 0.48 0.36
0.30 0.36 0.58 0.54 0.58 0.58 0.38 0.40 0.52 0.59 0.94 1.35 1.70 1.84 1.55 1.82 1.91 1.78 1.77 1.95 1.93 1.72 1.65 1.53 1.53 1.41 1.42 1.46 1.54 1.69 1.63 1.43 1.27 1.18 1.19 1.26 1.24 1.21 1.26 1.23 0.92 0.62 0.40
0.55 0.51 0.80 0.98 0.98 0.70 0.62 0.39 0.49 0.33 0.26 0.34 0.63 1.04 1.34 1.71 1.71 1.58 1.52 1.47 1.41 1.55 1.87 1.77 1.74 1.78 1.73 1.71 1.71 1.73 1.79 1.69 1.58 1.56 1.44 1.34 1.24 1.28 1.34 1.36 1.31 1.22 0.76
0.91 0.79 0.84 1.12 1.00 0.74 0.71 0.67 0.52 0.48 0.20 0.12 0.19 0.23 0.32 0.44 0.65 0.78 0.82 0.97 1.23 1.18 1.31 1.42 1.33 1.32 1.32 1.29 1.37 1.37 1.35 1.46 1.49 1.33 1.23 1.14 1.00 1.06 1.09 1.12 1.28 1.71 1.69
1.10 0.94 0.85 0.78 0.62 0.54 0.43 0.43 0.32 0.13 0.09 0.09 0.11 0.04 0.07 0.10 0.14 0.17 0.18 0.23 0.40 0.55 0.68 0.79 0.81 0.88 0.93 1.07 1.17 1.21 1.29 1.38 1.34 1.30 1.32 1.28 1.15 1.11 1.05 1.03 1.09 1.18 1.47
0.82 0.69 0.56 0.34 0.17 0.11 0.02 0.02 0.02 0.04 0.06 0.05 0.03 0.02 0.04 0.06 0.07 0.07 0.05 0.05 0.07 0.08 0.10 0.12 0.15 0.17 0.24 0.42 0.63 0.79 0.97 1.17 1.32 1.56 1.78 1.86 1.93 2.06 2.01 2.04 2.15 2.21 2.21
0.36 0.28 0.14 0.04 0.01 0.00 0.00 0.00 0.05 0.07 0.03 0.02 0.02 0.02 0.03 0.04 0.05 0.05 0.07 0.07 0.07 0.05 0.05 0.06 0.06 0.06 0.10 0.13 0.15 0.17 0.22 0.30 0.40 0.55 0.71 0.79 0.95 1.21 1.41 1.63 1.76 2.05 2.44
0.01 0.02 0.00 0.00 0.01 0.02 0.07 0.12 0.10 0.03 0.04 0.04 0.03 0.03 0.04 0.05 0.06 0.06 0.06 0.06 0.06 0.06 0.05 0.04 0.05 0.06 0.05 0.06 0.08 0.11 0.14 0.20 0.29 0.36 0.41 0.44 0.47 0.54 0.58 0.69 0.87 1.02 1.15
0.00 0.00 0.01 0.00 0.06 0.15 0.25 0.15 0.12 0.10 0.10 0.09 0.07 0.08 0.07 0.08 0.07 0.07 0.06 0.05 0.05 0.05 0.04 0.05 0.05 0.07 0.08 0.10 0.11 0.11 0.11 0.10 0.10 0.13 0.15 0.22 0.31 0.43 0.62 0.86 0.96 0.92 0.80
0.00 0.00 0.01 0.01 0.05 0.19 0.18 0.17 0.20 0.19 0.16 0.15 0.12 0.07 0.06 0.08 0.07 0.06 0.07 0.05 0.05 0.04 0.04 0.08 0.14 0.16 0.17 0.20 0.19 0.19 0.20 0.21 0.25 0.26 0.31 0.37 0.49 0.57 0.53 0.45 0.36 0.37 0.41
0.00 0.00 0.00 0.00 0.02 0.08 0.15 0.15 0.19 0.17 0.10 0.10 0.09 0.07 0.05 0.06 0.08 0.09 0.09 0.09 0.09 0.10 0.10 0.13 0.14 0.17 0.21 0.37 0.31 0.25 0.26 0.29 0.31 0.34 0.37 0.41 0.50 0.40 0.39 0.30 0.26 0.22 0.26
0.00 0.00 0.00 0.00 0.02 0.11 0.19 0.61 0.74 0.37 0.09 0.21 0.16 0.12 0.08 0.09 0.12 0.14 0.16 0.14 0.12 0.15 0.24 0.25 0.20 0.16 0.15 0.29 0.24 0.22 0.20 0.23 0.25 0.25 0.23 0.20 0.19 0.17 0.13 0.19 0.21 0.25 0.23
0.00 0.00 0.00 0.00 0.02 0.13 0.53 0.65 0.86 0.35 0.16 0.29 0.47 0.52 0.47 0.39 0.39 0.41 0.40 0.32 0.30 0.29 0.25 0.27 0.37 0.45 0.54 0.51 0.36 0.28 0.20 0.19 0.17 0.15 0.13 0.09 0.04 0.03 0.03 0.05 0.11 0.08 0.11
0.01 0.01 0.00 0.00 0.01 0.08 0.30 0.32 0.47 0.53 0.56 0.85 0.84 0.80 0.66 0.62 0.87 1.01 0.86 0.75 0.73 0.68 0.77 0.64 0.55 0.66 0.74 0.61 0.47 0.30 0.22 0.18 0.13 0.07 0.02 0.01 0.00 0.03 0.03 0.04 0.02 0.00 0.01
0.00 0.00 0.01 0.02 0.03 0.06 0.22 0.56 0.97 0.79 0.72 0.81 0.97 0.89 0.78 0.64 0.75 0.70 0.76 0.71 0.63 0.68 0.66 0.70 0.57 0.52 0.48 0.35 0.27 0.20 0.12 0.06 0.02 0.00 0.00 0.02 0.01 0.03 0.05 0.04 0.01 0.00 0.01
0.03 0.04 0.05 0.14 0.19 0.29 0.61 0.84 0.99 0.90 0.89 0.92 0.79 0.66 0.55 0.71 0.67 0.69 0.53 0.61 0.53 0.41 0.37 0.33 0.30 0.21 0.12 0.04 0.02 0.01 0.01 0.00 0.01 0.01 0.00 0.00 0.02 0.05 0.05 0.04 0.01 0.02 0.03
0.19 0.07 0.22 0.66 0.79 0.59 0.55 0.45 0.50 0.47 0.26 0.37 0.34 0.37 0.26 0.32 0.42 0.27 0.25 0.23 0.19 0.13 0.07 0.03 0.01 0.00 0.00 0.01 0.01 0.02 0.03 0.03 0.02 0.02 0.02 0.01 0.05 0.05 0.03 0.04 0.04 0.06 0.06
0.07 0.01 0.07 0.12 0.09 0.04 0.01 0.03 0.05 0.05 0.00 0.00 0.00 0.00 0.00 0.00 0.01 0.00 0.00 0.00 0.00 0.00 0.00 0.00 0.00 0.00 0.00 0.01 0.05 0.04 0.05 0.07 0.06 0.03 0.05 0.06 0.05 0.05 0.04 0.05 0.07 0.07 0.05
0.00 0.00 0.00 0.00 0.00 0.00 0.00 0.00 0.00 0.00 0.00 0.00 0.00 0.00 0.00 0.00 0.00 0.00 0.00 0.00 0.00 0.01 0.02 0.02 0.03 0.03 0.04 0.05 0.05 0.08 0.09 0.10 0.09 0.07 0.07 0.10 0.09 0.10 0.09 0.10 0.10 0.08 0.07
0.04 0.07 0.09 0.09 0.05 0.01 0.01 0.01 0.01 0.02 0.03 0.02 0.02 0.01 0.01 0.01 0.01 0.01 0.02 0.01 0.01 0.03 0.02 0.01 0.03 0.05 0.06 0.07 0.17 0.19 0.17 0.18 0.24 0.30 0.19 0.16 0.11 0.10 0.10 0.10 0.11 0.16 0.16
0.00 0.01 0.06 0.12 0.19 0.19 0.17 0.12 0.08 0.07 0.05 0.05 0.03 0.04 0.02 0.02 0.03 0.04 0.04 0.07 0.05 0.06 0.06 0.06 0.05 0.04 0.06 0.10 0.16 0.18 0.20 0.24 0.31 0.36 0.23 0.15 0.12 0.11 0.11 0.14 0.18 0.21 0.25

GFSMW_prec_precacc_111.txt.gz
Total_Precipitation_Accumulation
1.00 1.21 0.85 0.73 0.83 0.72 0.74 0.52 0.42 0.36 0.40 0.58 0.55 0.73 0.90 1.22 1.39 1.13 0.98 0.94 0.85 0.75 0.62 0.42 0.28 0.18 0.09 0.07 0.12 0.16 0.20 0.21 0.26 0.31 0.12 0.05 0.03 0.02 0.01 0.01 0.01 0.01 0.00
0.88 1.26 1.66 0.85 0.79 1.39 1.59 1.18 0.84 0.79 0.55 0.66 0.65 0.56 0.82 1.04 1.25 1.45 1.27 1.33 1.27 1.07 0.78 0.61 0.55 0.42 0.31 0.18 0.22 0.27 0.30 0.22 0.30 0.31 0.19 0.09 0.04 0.03 0.01 0.00 0.00 0.00 0.00
0.58 1.01 1.79 1.34 1.19 1.62 1.68 1.43 1.33 1.16 1.25 1.15 1.45 1.28 1.32 1.26 1.60 1.81 1.61 1.55 1.46 1.37 1.42 1.53 1.19 0.75 0.79 0.88 0.88 0.83 0.79 0.64 0.48 0.43 0.40 0.16 0.05 0.02 0.01 0.01 0.00 0.00 0.00
0.37 0.57 0.90 1.25 1.40 0.91 0.84 1.33 2.38 2.65 1.70 1.71 2.50 2.94 2.85 2.75 2.53 2.84 2.48 1.90 1.65 1.62 1.79 2.10 2.46 2.66 2.27 1.58 1.35 1.31 1.19 1.23 1.06 0.99 0.69 0.54 0.36 0.26 0.12 0.04 0.03 0.02 0.01
0.33 0.34 0.53 0.73 0.60 0.49 0.54 0.72 1.26 2.07 2.13 2.05 2.51 2.92 2.59 2.10 1.93 2.03 2.57 2.58 2.35 1.98 1.84 1.88 1.93 1.91 2.07 2.44 2.16 1.75 1.73 1.64 1.35 1.11 0.89 0.78 0.72 0.73 0.63 0.35 0.18 0.13 0.09
0.16 0.31 0.26 0.34 0.38 0.42 0.51 0.50 0.69 1.08 1.90 2.06 2.07 2.41 2.64 2.81 2.41 1.97 2.20 2.11 1.73 1.68 1.60 1.47 1.36 1.41 1.46 1.56 1.92 1.95 1.67 1.57 1.61 1.53 1.35 1.11 1.01 0.85 0.96 0.88 0.58 0.50 0.36
0.30 0.36 0.58 0.54 0.58 0.58 0.38 0.40 0.52 0.59 0.94 1.35 1.70 1.85 1.56 1.82 1.91 1.80 1.79 1.96 1.93 1.72 1.65 1.53 1.53 1.41 1.42 1.46 1.55 1.71 1.64 1.46 1.31 1.26 1.28 1.38 1.38 1.33 1.32 1.26 0.94 0.65 0.43
0.55 0.51 0.80 0.98 0.99 0.70 0.62 0.39 0.49 0.33 0.26 0.34 0.63 1.04 1.34 1.71 1.71 1.58 1.52 1.47 1.41 1.55 1.87 1.77 1.74 1.78 1.73 1.71 1.72 1.76 1.81 1.71 1.62 1.63 1.55 1.49 1.44 1.54 1.64 1.72 1.70 1.52 0.93
0.91 0.79 0.84 1.13 1.00 0.74 0.71 0.67 0.52 0.48 0.20 0.12 0.19 0.23 0.32 0.44 0.65 0.78 0.82 0.97 1.23 1.18 1.31 1.42 1.33 1.32 1.32 1.29 1.37 1.38 1.37 1.49 1.53 1.42 1.35 1.29 1.17 1.25 1.29 1.42 1.65 2.12 2.00
1.10 0.94 0.85 0.78 0.62 0.54 0.43 0.43 0.32 0.13 0.09 0.09 0.11 0.04 0.07 0.10 0.14 0.17 0.18 0.23 0.40 0.55 0.68 0.79 0.81 0.88 0.93 1.07 1.17 1.21 1.29 1.39 1.40 1.42 1.46 1.47 1.40 1.33 1.24 1.18 1.25 1.38 1.71
0.82 0.69 0.56 0.34 0.17 0.11 0.02 0.02 0.02 0.04 0.06 0.05 0.03 0.02 0.04 0.06 0.07 0.07 0.05 0.05 0.07 0.08 0.10 0.12 0.15 0.17 0.24 0.42 0.63 0.79 0.97 1.17 1.32 1.59 1.84 1.95 2.06 2.24 2.19 2.21 2.32 2.42 2.47
0.36 0.28 0.14 0.04 0.01 0.00 0.00 0.00 0.05 0.07 0.03 0.02 0.02 0.02 0.03 0.04 0.05 0.05 0.07 0.07 0.07 0.05 0.05 0.06 0.06 0.06 0.10 0.13 0.15 0.17 0.22 0.30 0.40 0.55 0.71 0.79 0.95 1.21 1.42 1.65 1.81 2.14 2.56
0.01 0.02 0.00 0.00 0.01 0.02 0.07 0.12 0.10 0.03 0.04 0.04 0.03 0.03 0.04 0.05 0.06 0.06 0.06 0.06 0.06 0.06 0.05 0.04 0.05 0.06 0.05 0.06 0.08 0.11 0.14 0.20 0.29 0.36 0.41 0.44 0.47 0.54 0.58 0.69 0.87 1.03 1.18
0.00 0.00 0.01 0.00 0.06 0.15 0.25 0.15 0.12 0.10 0.10 0.09 0.07 0.08 0.07 0.08 0.07 0.07 0.06 0.05 0.05 0.05 0.04 0.05 0.05 0.07 0.08 0.10 0.11 0.11 0.11 0.10 0.10 0.13 0.15 0.22 0.31 0.43 0.62 0.86 0.96 0.92 0.80
0.00 0.00 0.01 0.01 0.05 0.19 0.18 0.17 0.20 0.19 0.16 0.15 0.12 0.07 0.06 0.08 0.07 0.06 0.07 0.05 0.05 0.04 0.04 0.08 0.14 0.16 0.17 0.20 0.19 0.19 0.20 0.21 0.25 0.26 0.31 0.37 0.49 0.57 0.53 0.45 0.36 0.37 0.41
0.00 0.00 0.00 0.00 0.02 0.08 0.15 0.15 0.19 0.17 0.10 0.10 0.09 0.07 0.05 0.06 0.08 0.09 0.09 0.09 0.09 0.10 0.10 0.13 0.14 0.17 0.21 0.37 0.31 0.25 0.26 0.29 0.31 0.34 0.37 0.41 0.50 0.40 0.39 0.30 0.26 0.22 0.26
0.00 0.00 0.00 0.00 0.02 0.11 0.19 0.61 0.74 0.37 0.09 0.21 0.16 0.12 0.08 0.09 0.12 0.14 0.16 0.14 0.12 0.15 0.24 0.25 0.20 0.16 0.15 0.29 0.24 0.22 0.20 0.23 0.25 0.25 0.23 0.20 0.19 0.17 0.13 0.19 0.21 0.25 0.23
0.00 0.00 0.00 0.00 0.02 0.13 0.53 0.65 0.86 0.35 0.16 0.29 0.47 0.52 0.47 0.39 0.39 0.41 0.40 0.32 0.30 0.29 0.25 0.27 0.37 0.45 0.54 0.51 0.36 0.28 0.20 0.19 0.17 0.15 0.13 0.09 0.04 0.03 0.03 0.05 0.11 0.08 0.11
0.01 0.01 0.00 0.00 0.01 0.08 0.30 0.32 0.47 0.53 0.56 0.85 0.84 0.80 0.66 0.62 0.87 1.01 0.86 0.75 0.73 0.68 0.77 0.64 0.55 0.66 0.74 0.61 0.47 0.30 0.22 0.18 0.13 0.07 0.02 0.01 0.00 0.03 0.03 0.04 0.02 0.00 0.01
0.00 0.00 0.01 0.02 0.03 0.06 0.22 0.56 0.97 0.79 0.72 0.81 0.97 0.89 0.78 0.64 0.75 0.70 0.76 0.71 0.63 0.68 0.66 0.70 0.57 0.52 0.48 0.35 0.27 0.20 0.12 0.06 0.02 0.00 0.00 0.02 0.01 0.03 0.05 0.04 0.01 0.01 0.01
0.03 0.04 0.05 0.14 0.19 0.29 0.61 0.84 0.99 0.90 0.89 0.92 0.79 0.66 0.55 0.71 0.67 0.69 0.53 0.61 0.53 0.41 0.37 0.33 0.30 0.21 0.12 0.04 0.02 0.01 0.01 0.00 0.01 0.01 0.00 0.00 0.02 0.05 0.06 0.05 0.02 0.03 0.04
0.19 0.07 0.22 0.66 0.79 0.59 0.55 0.45 0.50 0.47 0.26 0.37 0.34 0.37 0.26 0.32 0.42 0.27 0.25 0.23 0.19 0.13 0.07 0.03 0.01 0.00 0.00 0.01 0.01 0.02 0.03 0.03 0.02 0.02 0.02 0.01 0.05 0.05 0.04 0.05 0.05 0.07 0.08
0.07 0.01 0.07 0.12 0.09 0.04 0.01 0.03 0.05 0.05 0.00 0.00 0.00 0.00 0.00 0.00 0.01 0.00 0.00 0.00 0.00 0.00 0.00 0.00 0.00 0.00 0.00 0.01 0.05 0.04 0.05 0.07 0.07 0.03 0.05 0.06 0.05 0.05 0.04 0.06 0.08 0.07 0.06
0.00 0.00 0.00 0.00 0.00 0.00 0.00 0.00 0.00 0.00 0.00 0.00 0.00 0.00 0.00 0.00 0.00 0.00 0.00 0.00 0.00 0.01 0.02 0.02 0.03 0.03 0.04 0.05 0.05 0.08 0.09 0.10 0.09 0.07 0.08 0.10 0.09 0.10 0.09 0.10 0.10 0.08 0.08
0.04 0.07 0.09 0.09 0.05 0.01 0.01 0.01 0.01 0.02 0.03 0.02 0.02 0.01 0.01 0.01 0.01 0.01 0.02 0.01 0.01 0.03 0.02 0.01 0.03 0.05 0.06 0.07 0.17 0.19 0.17 0.19 0.25 0.31 0.20 0.16 0.11 0.10 0.10 0.10 0.11 0.16 0.16
0.00 0.01 0.06 0.12 0.19 0.19 0.17 0.12 0.08 0.07 0.05 0.05 0.03 0.04 0.02 0.02 0.03 0.04 0.04 0.07 0.05 0.06 0.06 0.06 0.05 0.04 0.06 0.10 0.17 0.19 0.21 0.24 0.32 0.37 0.25 0.15 0.12 0.11 0.11 0.14 0.18 0.21 0.25